This is the latest recevied weather packets stored in our database for station/object SR9NCI. If no packets are shown the sender has not sent any weather packets the latest 1 day(s).
| Time | Temp. | Humidity | Pressure | Rain* | Wind** | Luminosity | Snow |
|---|---|---|---|---|---|---|---|
| 1777978426 | 25.56° C | - | 0 hPa | - | 5.81 m/s, 164° | - | - |
| 1777978185 | 25.56° C | - | 0 hPa | - | 6.71 m/s, 168° | - | - |
| 1777977944 | 25.56° C | - | 0 hPa | - | 5.36 m/s, 164° | - | - |
| 1777977702 | 25.56° C | - | 0 hPa | - | 5.81 m/s, 172° | - | - |
| 1777977453 | 25.56° C | - | 0 hPa | - | 5.36 m/s, 162° | - | - |
| 1777977211 | 25° C | - | 0 hPa | - | 7.15 m/s, 180° | - | - |
| 1777976970 | 25.56° C | - | 0 hPa | - | 4.92 m/s, 151° | - | - |
| 1777976729 | 25° C | - | 0 hPa | - | 5.36 m/s, 152° | - | - |
| 1777976245 | 25.56° C | - | 0 hPa | - | 4.92 m/s, 152° | - | - |
| 1777976003 | 25° C | - | 0 hPa | - | 6.26 m/s, 165° | - | - |
| 1777975762 | 25° C | - | 0 hPa | - | 7.6 m/s, 151° | - | - |
| 1777975521 | 25° C | - | 0 hPa | - | 8.05 m/s, 178° | - | - |
| 1777975278 | 25.56° C | - | 0 hPa | - | 7.6 m/s, 163° | - | - |
| 1777975030 | 26.11° C | - | 0 hPa | - | 7.6 m/s, 157° | - | - |
| 1777974789 | 26.11° C | - | 0 hPa | - | 7.15 m/s, 154° | - | - |
| 1777974548 | 25.56° C | - | 0 hPa | - | 8.05 m/s, 165° | - | - |
| 1777974305 | 25.56° C | - | 0 hPa | - | 10.28 m/s, 166° | - | - |
| 1777974064 | 25.56° C | - | 0 hPa | - | 9.83 m/s, 177° | - | - |
| 1777973859 | 25.56° C | - | 0 hPa | - | 7.6 m/s, 182° | - | - |
| 1777973823 | 25.56° C | - | 0 hPa | - | 7.6 m/s, 182° | - | - |
| 1777973581 | 26.11° C | - | 0 hPa | - | 9.39 m/s, 166° | - | - |
| 1777973339 | 25.56° C | - | 0 hPa | - | 6.71 m/s, 153° | - | - |
| 1777973098 | 26.11° C | - | 0 hPa | - | 7.15 m/s, 157° | - | - |
| 1777972856 | 25.56° C | - | 0 hPa | - | 8.49 m/s, 169° | - | - |
| 1777972608 | 25.56° C | - | 0 hPa | - | 8.94 m/s, 168° | - | - |
* Rain since midnight (hover to see other rain measurements)
** Current wind speed in m/s (hover to see current wind gust speed)